| time (UTC) | temp C | wind direction | speed KPH | gust KPH | rain 1hr cm | rain 24hr cm | rain mn cm | humidity % | barometer mb |
| 20260506035345 | 10 | 34 | 1.6 | 3.2 | 0.18 | 1.40 | 1.40 | 98 | 1009.3 |
| 20260506034842 | 10 | 89 | 0.0 | 3.2 | 0.18 | 1.37 | 1.37 | 98 | 1009.3 |
| 20260506034339 | 10 | 61 | 1.6 | 3.2 | 0.18 | 1.37 | 1.37 | 98 | 1009.3 |
| 20260506033836 | 10 | 47 | 3.2 | 3.2 | 0.18 | 1.35 | 1.35 | 98 | 1009.5 |
| 20260506033334 | 10 | 46 | 3.2 | 3.2 | 0.23 | 1.35 | 1.35 | 98 | 1009.6 |
| 20260506032830 | 10 | 59 | 1.6 | 3.2 | 0.30 | 1.32 | 1.32 | 97 | 1009.9 |
| 20260506032327 | 10 | 43 | 4.8 | 4.8 | 0.36 | 1.30 | 1.30 | 98 | 1010.2 |
| 20260506031824 | 10 | 218 | 3.2 | 3.2 | 0.36 | 1.27 | 1.27 | 98 | 1010.0 |
| 20260506031321 | 10 | 96 | 3.2 | 9.7 | 0.36 | 1.22 | 1.22 | 97 | 1009.9 |
| 20260506030819 | 10 | 27 | 3.2 | 3.2 | 0.53 | 1.22 | 1.22 | 97 | 1009.5 |
| 20260506030317 | 10 | 117 | 3.2 | 3.2 | 0.48 | 1.17 | 1.17 | 97 | 1009.3 |
| 20260506025813 | 10 | 55 | 0.0 | 1.6 | 0.30 | 1.09 | 1.09 | 97 | 1009.1 |
| 20260506025310 | 10 | 49 | 0.0 | 0.0 | 0.36 | 1.07 | 1.07 | 97 | 1009.3 |
| 20260506024807 | 10 | 38 | 3.2 | 3.2 | 0.36 | 1.04 | 1.04 | 97 | 1009.0 |
| 20260506024304 | 10 | 39 | 1.6 | 3.2 | 0.23 | 1.02 | 1.02 | 97 | 1009.4 |
| 20260506023800 | 10 | 52 | 0.0 | 3.2 | 0.23 | 0.99 | 0.99 | 97 | 1009.4 |
| 20260506023257 | 10 | 74 | 0.0 | 1.6 | 0.13 | 0.97 | 0.97 | 97 | 1009.3 |
| 20260506022753 | 10 | 48 | 1.6 | 3.2 | 0.13 | 0.94 | 0.94 | 97 | 1009.2 |
| 20260506022252 | 10 | 46 | 4.8 | 4.8 | 0.30 | 0.94 | 0.94 | 97 | 1009.2 |
| 20260506021749 | 10 | 65 | 3.2 | 3.2 | 0.36 | 0.94 | 0.94 | 97 | 1009.4 |
| 20260506021246 | 10 | 72 | 3.2 | 3.2 | 0.48 | 0.89 | 0.89 | 97 | 1009.1 |
| 20260506020743 | 10 | 80 | 3.2 | 3.2 | 0.43 | 0.86 | 0.86 | 97 | 1009.0 |
| 20260506020241 | 10 | 62 | 4.8 | 4.8 | 0.23 | 0.81 | 0.81 | 97 | 1009.2 |
| 20260506015738 | 10 | 55 | 3.2 | 3.2 | 0.23 | 0.79 | 0.79 | 97 | 1009.0 |
| 20260506015235 | 10 | 39 | 3.2 | 4.8 | 0.18 | 0.76 | 0.76 | 97 | 1009.1 |
| 20260506014732 | 10 | 59 | 3.2 | 3.2 | 0.05 | 0.74 | 0.74 | 97 | 1009.3 |
| 20260506014228 | 10 | 69 | 0.0 | 4.8 | 0.05 | 0.74 | 0.74 | 97 | 1009.0 |
| 20260506013726 | 10 | 49 | 1.6 | 3.2 | 0.05 | 0.74 | 0.74 | 97 | 1009.2 |
| 20260506013223 | 10 | 126 | 0.0 | 3.2 | 0.00 | 0.74 | 0.74 | 96 | 1008.9 |
| 20260506012719 | 10 | 82 | 3.2 | 4.8 | 0.18 | 0.74 | 0.74 | 96 | 1008.9 |
| 20260506012216 | 10 | 39 | 3.2 | 4.8 | 0.43 | 0.71 | 0.71 | 96 | 1008.9 |
| 20260506011713 | 10 | 56 | 3.2 | 3.2 | 0.36 | 0.71 | 0.71 | 96 | 1008.9 |
| 20260506011209 | 10 | 37 | 0.0 | 3.2 | 0.13 | 0.66 | 0.66 | 96 | 1008.9 |
| 20260506010708 | 10 | 65 | 3.2 | 6.4 | 0.00 | 0.64 | 0.64 | 96 | 1008.8 |
| 20260506010205 | 11 | 30 | 3.2 | 4.8 | 0.05 | 0.64 | 0.64 | 96 | 1008.7 |
| 20260506005702 | 11 | 13 | 3.2 | 4.8 | 0.05 | 0.64 | 0.64 | 96 | 1008.7 |
| 20260506005159 | 11 | 40 | 3.2 | 3.2 | 0.00 | 0.61 | 0.61 | 96 | 1008.7 |
| 20260506004655 | 11 | 61 | 3.2 | 3.2 | 0.13 | 0.61 | 0.61 | 96 | 1008.7 |
| 20260506004152 | 11 | 62 | 1.6 | 3.2 | 0.23 | 0.61 | 0.61 | 96 | 1008.9 |
| 20260506003648 | 11 | 62 | 3.2 | 4.8 | 0.30 | 0.61 | 0.61 | 95 | 1008.6 |
| 20260506003145 | 11 | 62 | 3.2 | 4.8 | 0.36 | 0.58 | 0.58 | 95 | 1008.7 |
| 20260506002641 | 11 | 56 | 3.2 | 4.8 | 0.48 | 0.56 | 0.56 | 95 | 1008.8 |
| 20260506002137 | 11 | 64 | 3.2 | 4.8 | 0.43 | 0.51 | 0.51 | 95 | 1008.9 |
| 20260506001633 | 11 | 63 | 3.2 | 3.2 | 0.43 | 0.46 | 0.46 | 94 | 1008.8 |
| 20260506001131 | 11 | 84 | 4.8 | 4.8 | 0.36 | 0.43 | 0.43 | 94 | 1008.8 |
| 20260506000628 | 11 | 116 | 3.2 | 6.4 | 0.53 | 0.41 | 0.41 | 93 | 1008.9 |
| 20260506000125 | 11 | 120 | 4.8 | 6.4 | 1.02 | 0.38 | 0.38 | 93 | 1009.1 |
| 20260505235623 | 11 | 40 | 6.4 | 6.4 | 1.37 | 0.30 | 0.30 | 92 | 1009.2 |
| 20260505235120 | 12 | 100 | 4.8 | 8.0 | 0.89 | 0.20 | 0.20 | 92 | 1008.8 |
| 20260505234617 | 12 | 305 | 3.2 | 6.4 | 0.43 | 0.08 | 0.08 | 91 | 1009.4 |
| 20260505234113 | 13 | 333 | 4.8 | 8.0 | 0.30 | 0.05 | 0.05 | 90 | 1008.5 |
| 20260505233611 | 13 | 10 | 4.8 | 6.4 | 0.00 | 0.00 | 0.00 | 90 | 1008.2 |
| 20260505233108 | 14 | 0 | 0.0 | 6.4 | 0.00 | 0.00 | 0.00 | 91 | 1007.9 |
| 20260505232606 | 14 | 31 | 3.2 | 4.8 | 0.00 | 0.00 | 0.00 | 91 | 1008.0 |
| 20260505232103 | 14 | 35 | 1.6 | 3.2 | 0.00 | 0.00 | 0.00 | 90 | 1008.1 |
| 20260505231600 | 15 | 56 | 3.2 | 3.2 | 0.00 | 0.00 | 0.00 | 90 | 1008.0 |
| 20260505231058 | 15 | 42 | 1.6 | 3.2 | 0.00 | 0.00 | 0.00 | 90 | 1007.9 |
| 20260505230556 | 15 | 54 | 1.6 | 3.2 | 0.00 | 0.00 | 0.00 | 89 | 1008.0 |
| 20260505230052 | 15 | 32 | 0.0 | 3.2 | 0.00 | 0.00 | 0.00 | 88 | 1008.0 |
| 20260505225549 | 15 | 48 | 3.2 | 4.8 | 0.00 | 0.00 | 0.00 | 87 | 1008.0 |
| 20260505225045 | 15 | 63 | 3.2 | 4.8 | 0.00 | 0.00 | 0.00 | 87 | 1008.0 |
| 20260505224542 | 15 | 122 | 1.6 | 3.2 | 0.00 | 0.00 | 0.00 | 87 | 1008.2 |
| 20260505224039 | 15 | 209 | 0.0 | 3.2 | 0.05 | 0.00 | 0.00 | 86 | 1008.3 |
| 20260505223536 | 15 | 15 | 1.6 | 3.2 | 0.05 | 0.00 | 0.00 | 87 | 1008.3 |
| 20260505223032 | 15 | 51 | 0.0 | 3.2 | 0.00 | 0.00 | 0.00 | 87 | 1008.5 |
| 20260505222529 | 15 | 47 | 3.2 | 4.8 | 0.00 | 0.00 | 0.00 | 87 | 1008.5 |
| 20260505222025 | 15 | 32 | 3.2 | 3.2 | 0.00 | 0.00 | 0.00 | 87 | 1008.6 |
| 20260505221523 | 15 | 13 | 0.0 | 4.8 | 0.00 | 0.00 | 0.00 | 86 | 1008.4 |
| 20260505221019 | 15 | 44 | 0.0 | 3.2 | 0.00 | 0.00 | 0.00 | 86 | 1008.4 |
| 20260505220516 | 15 | 51 | 3.2 | 4.8 | 0.00 | 0.00 | 0.00 | 87 | 1008.6 |
| 20260505220014 | 15 | 13 | 3.2 | 6.4 | 0.00 | 0.00 | 0.00 | 86 | 1008.8 |
| 20260505215512 | 16 | 0 | 1.6 | 4.8 | 0.00 | 0.00 | 0.00 | 85 | 1008.5 |
| 20260505215009 | 16 | 39 | 3.2 | 3.2 | 0.00 | 0.00 | 0.00 | 85 | 1008.4 |
| 20260505214508 | 16 | 36 | 3.2 | 4.8 | 0.00 | 0.00 | 0.00 | 83 | 1008.3 |
| 20260505214004 | 16 | 13 | 3.2 | 4.8 | 0.00 | 0.00 | 0.00 | 81 | 1007.9 |
| 20260505213502 | 16 | 336 | 3.2 | 6.4 | 0.00 | 0.00 | 0.00 | 80 | 1007.9 |
| 20260505212958 | 17 | 38 | 4.8 | 4.8 | 0.00 | 0.00 | 0.00 | 78 | 1007.7 |
| 20260505212454 | 17 | 49 | 4.8 | 4.8 | 0.00 | 0.00 | 0.00 | 78 | 1008.1 |
| 20260505211951 | 17 | 353 | 3.2 | 3.2 | 0.00 | 0.00 | 0.00 | 76 | 1007.7 |
| 20260505211449 | 17 | 212 | 0.0 | 4.8 | 0.00 | 0.00 | 0.00 | 74 | 1008.1 |
| 20260505210945 | 17 | 275 | 3.2 | 11.3 | 0.00 | 0.00 | 0.00 | 74 | 1008.1 |
| 20260505210442 | 17 | 173 | 3.2 | 4.8 | 0.00 | 0.00 | 0.00 | 74 | 1007.8 |
| 20260505205939 | 18 | 153 | 8.0 | 8.0 | 0.00 | 0.00 | 0.00 | 74 | 1007.7 |
| 20260505205437 | 18 | 164 | 4.8 | 6.4 | 0.00 | 0.00 | 0.00 | 70 | 1007.9 |
| 20260505204933 | 18 | 266 | 0.0 | 3.2 | 0.00 | 0.00 | 0.00 | 68 | 1007.8 |
| 20260505204432 | 18 | 217 | 0.0 | 4.8 | 0.00 | 0.00 | 0.00 | 68 | 1007.5 |
| 20260505203928 | 18 | 212 | 0.0 | 1.6 | 0.00 | 0.00 | 0.00 | 67 | 1007.5 |
| 20260505203425 | 18 | 213 | 1.6 | 4.8 | 0.00 | 0.00 | 0.00 | 67 | 1007.5 |
| 20260505202921 | 18 | 243 | 3.2 | 3.2 | 0.00 | 0.00 | 0.00 | 67 | 1007.4 |
| 20260505202418 | 18 | 208 | 1.6 | 3.2 | 0.00 | 0.00 | 0.00 | 68 | 1007.4 |
| 20260505201914 | 18 | 274 | 1.6 | 4.8 | 0.00 | 0.00 | 0.00 | 67 | 1007.7 |
| 20260505201411 | 18 | 266 | 1.6 | 3.2 | 0.00 | 0.00 | 0.00 | 67 | 1008.1 |
| 20260505200910 | 18 | 215 | 4.8 | 4.8 | 0.00 | 0.00 | 0.00 | 67 | 1007.8 |
| 20260505200406 | 18 | 269 | 0.0 | 3.2 | 0.00 | 0.00 | 0.00 | 65 | 1007.9 |
| 20260505195902 | 18 | 264 | 1.6 | 4.8 | 0.00 | 0.00 | 0.00 | 66 | 1007.9 |
| 20260505195359 | 18 | 149 | 0.0 | 3.2 | 0.00 | 0.00 | 0.00 | 66 | 1008.1 |
| 20260505194856 | 18 | 231 | 0.0 | 0.0 | 0.00 | 0.00 | 0.00 | 67 | 1007.7 |
| 20260505194354 | 18 | 236 | 1.6 | 4.8 | 0.00 | 0.00 | 0.00 | 66 | 1008.0 |
| 20260505193854 | 18 | 155 | 1.6 | 3.2 | 0.00 | 0.00 | 0.00 | 67 | 1007.8 |
| 20260505193352 | 18 | 262 | 1.6 | 3.2 | 0.00 | 0.00 | 0.00 | 68 | 1008.1 |
| 20260505192849 | 18 | 241 | 1.6 | 3.2 | 0.00 | 0.00 | 0.00 | 69 | 1008.0 |
| 20260505192348 | 18 | 232 | 3.2 | 3.2 | 0.00 | 0.00 | 0.00 | 70 | 1008.4 |
| 20260505191845 | 17 | 248 | 4.8 | 6.4 | 0.00 | 0.00 | 0.00 | 68 | 1008.4 |
| 20260505191344 | 17 | 137 | 0.0 | 4.8 | 0.00 | 0.00 | 0.00 | 68 | 1008.6 |
| 20260505190840 | 17 | 224 | 6.4 | 8.0 | 0.00 | 0.00 | 0.00 | 69 | 1008.5 |
| 20260505190335 | 18 | 264 | 9.7 | 16.1 | 0.00 | 0.00 | 0.00 | 65 | 1008.7 |
| 20260505185831 | 18 | 245 | 4.8 | 9.7 | 0.00 | 0.00 | 0.00 | 63 | 1008.6 |
| 20260505185328 | 18 | 237 | 1.6 | 8.0 | 0.00 | 0.00 | 0.00 | 63 | 1008.6 |
| 20260505184824 | 19 | 227 | 3.2 | 4.8 | 0.00 | 0.00 | 0.00 | 62 | 1008.4 |
| 20260505184321 | 19 | 264 | 0.0 | 6.4 | 0.00 | 0.00 | 0.00 | 62 | 1008.4 |
| 20260505183818 | 20 | 218 | 4.8 | 6.4 | 0.00 | 0.00 | 0.00 | 61 | 1008.4 |
| 20260505183315 | 20 | 233 | 4.8 | 11.3 | 0.00 | 0.00 | 0.00 | 60 | 1008.3 |
| 20260505182812 | 20 | 260 | 3.2 | 9.7 | 0.00 | 0.00 | 0.00 | 60 | 1008.2 |
| 20260505182308 | 20 | 279 | 4.8 | 14.5 | 0.00 | 0.00 | 0.00 | 60 | 1008.3 |
| 20260505181805 | 20 | 210 | 3.2 | 8.0 | 0.00 | 0.00 | 0.00 | 61 | 1008.1 |
| 20260505181303 | 20 | 239 | 3.2 | 4.8 | 0.00 | 0.00 | 0.00 | 60 | 1008.3 |
| 20260505180759 | 20 | 204 | 3.2 | 3.2 | 0.00 | 0.00 | 0.00 | 61 | 1008.1 |
| 20260505180255 | 20 | 250 | 6.4 | 9.7 | 0.00 | 0.00 | 0.00 | 61 | 1008.2 |
| 20260505175752 | 20 | 263 | 3.2 | 9.7 | 0.00 | 0.00 | 0.00 | 61 | 1008.1 |
| 20260505175248 | 20 | 229 | 4.8 | 11.3 | 0.00 | 0.00 | 0.00 | 61 | 1008.2 |
| 20260505174745 | 20 | 232 | 4.8 | 4.8 | 0.00 | 0.00 | 0.00 | 62 | 1008.1 |
| 20260505174242 | 20 | 233 | 3.2 | 6.4 | 0.00 | 0.00 | 0.00 | 60 | 1008.0 |
| 20260505173738 | 20 | 191 | 1.6 | 17.7 | 0.00 | 0.00 | 0.00 | 62 | 1007.9 |
| 20260505173235 | 20 | 245 | 6.4 | 6.4 | 0.00 | 0.00 | 0.00 | 60 | 1007.8 |
| 20260505172732 | 20 | 280 | 6.4 | 6.4 | 0.00 | 0.00 | 0.00 | 59 | 1007.9 |
| 20260505172229 | 20 | 237 | 3.2 | 8.0 | 0.00 | 0.00 | 0.00 | 59 | 1007.9 |
| 20260505171729 | 20 | 258 | 1.6 | 6.4 | 0.00 | 0.00 | 0.00 | 60 | 1007.8 |
| 20260505171226 | 20 | 214 | 3.2 | 8.0 | 0.00 | 0.00 | 0.00 | 60 | 1007.9 |
| 20260505170723 | 20 | 229 | 6.4 | 8.0 | 0.00 | 0.00 | 0.00 | 60 | 1007.7 |
| 20260505170220 | 20 | 223 | 6.4 | 16.1 | 0.00 | 0.00 | 0.00 | 56 | 1007.8 |
| 20260505165715 | 20 | 173 | 6.4 | 17.7 | 0.00 | 0.00 | 0.00 | 58 | 1007.8 |
| 20260505165211 | 20 | 264 | 3.2 | 8.0 | 0.00 | 0.00 | 0.00 | 58 | 1007.8 |
| 20260505164707 | 20 | 274 | 4.8 | 16.1 | 0.00 | 0.00 | 0.00 | 56 | 1007.9 |
| 20260505164204 | 21 | 239 | 3.2 | 6.4 | 0.00 | 0.00 | 0.00 | 57 | 1007.7 |
| 20260505163702 | 21 | 281 | 6.4 | 8.0 | 0.00 | 0.00 | 0.00 | 56 | 1007.8 |
| 20260505163201 | 21 | 182 | 3.2 | 9.7 | 0.00 | 0.00 | 0.00 | 56 | 1007.7 |
| 20260505162658 | 21 | 256 | 6.4 | 17.7 | 0.00 | 0.00 | 0.00 | 56 | 1007.8 |
| 20260505162155 | 21 | 258 | 6.4 | 9.7 | 0.00 | 0.00 | 0.00 | 56 | 1007.2 |
| 20260505161651 | 21 | 246 | 8.0 | 12.9 | 0.00 | 0.00 | 0.00 | 55 | 1007.4 |
| 20260505161149 | 21 | 138 | 1.6 | 8.0 | 0.00 | 0.00 | 0.00 | 54 | 1007.5 |
| 20260505160647 | 21 | 281 | 6.4 | 9.7 | 0.00 | 0.00 | 0.00 | 57 | 1007.4 |
| 20260505160144 | 21 | 203 | 6.4 | 14.5 | 0.00 | 0.00 | 0.00 | 55 | 1007.2 |
| 20260505153123 | 20 | 254 | 6.4 | 6.4 | 0.00 | 0.00 | 0.00 | 62 | 1007.9 |
| 20260505152620 | 20 | 226 | 8.0 | 8.0 | 0.00 | 0.00 | 0.00 | 61 | 1007.8 |
| 20260505152115 | 20 | 228 | 1.6 | 17.7 | 0.00 | 0.00 | 0.00 | 60 | 1007.8 |
| 20260505151611 | 19 | 59 | 0.0 | 14.5 | 0.00 | 0.00 | 0.00 | 62 | 1007.8 |
| 20260505151109 | 19 | 307 | 11.3 | 14.5 | 0.00 | 0.00 | 0.00 | 60 | 1008.0 |
| 20260505150605 | 20 | 329 | 6.4 | 16.1 | 0.00 | 0.00 | 0.00 | 59 | 1007.9 |
| 20260505140530 | 18 | 177 | 9.7 | 12.9 | 0.00 | 0.00 | 0.00 | 67 | 1007.2 |
| 20260505124943 | 16 | 243 | 0.0 | 9.7 | 0.00 | 0.00 | 0.00 | 75 | 1007.1 |
| 20260505124440 | 16 | 200 | 3.2 | 17.7 | 0.00 | 0.00 | 0.00 | 75 | 1006.8 |
| 20260505123936 | 16 | 150 | 6.4 | 8.0 | 0.00 | 0.00 | 0.00 | 74 | 1006.7 |
| 20260505123433 | 16 | 145 | 0.0 | 4.8 | 0.00 | 0.00 | 0.00 | 74 | 1006.6 |
| 20260505122929 | 16 | 132 | 6.4 | 8.0 | 0.00 | 0.00 | 0.00 | 74 | 1006.5 |
| 20260505122427 | 16 | 162 | 8.0 | 8.0 | 0.00 | 0.00 | 0.00 | 74 | 1006.6 |
| 20260505121923 | 16 | 137 | 1.6 | 4.8 | 0.00 | 0.00 | 0.00 | 72 | 1006.7 |
| 20260505121420 | 16 | 175 | 4.8 | 14.5 | 0.00 | 0.00 | 0.00 | 70 | 1006.8 |
| 20260505120916 | 17 | 173 | 4.8 | 9.7 | 0.00 | 0.00 | 0.00 | 69 | 1007.0 |
| 20260505120413 | 17 | 176 | 3.2 | 19.3 | 0.00 | 0.00 | 0.00 | 68 | 1006.8 |
| 20260505115912 | 17 | 239 | 4.8 | 6.4 | 0.00 | 0.00 | 0.00 | 67 | 1006.7 |
| 20260505115408 | 17 | 157 | 3.2 | 14.5 | 0.00 | 0.00 | 0.00 | 67 | 1006.7 |
| 20260505114907 | 17 | 157 | 3.2 | 14.5 | 0.00 | 0.00 | 0.00 | 66 | 1006.7 |
| 20260505114402 | 17 | 195 | 3.2 | 12.9 | 0.00 | 0.00 | 0.00 | 66 | 1006.8 |
| 20260505113859 | 17 | 181 | 4.8 | 4.8 | 0.00 | 0.00 | 0.00 | 68 | 1006.8 |
| 20260505113356 | 17 | 182 | 3.2 | 9.7 | 0.00 | 0.00 | 0.00 | 67 | 1006.8 |
| 20260505112851 | 17 | 158 | 0.0 | 6.4 | 0.00 | 0.00 | 0.00 | 67 | 1006.5 |
| 20260505112349 | 17 | 122 | 1.6 | 6.4 | 0.00 | 0.00 | 0.00 | 66 | 1006.6 |
| 20260505111845 | 17 | 176 | 4.8 | 11.3 | 0.00 | 0.00 | 0.00 | 66 | 1006.4 |
| 20260505111340 | 17 | 187 | 6.4 | 9.7 | 0.00 | 0.00 | 0.00 | 66 | 1006.3 |
| 20260505110836 | 17 | 190 | 3.2 | 8.0 | 0.00 | 0.00 | 0.00 | 65 | 1006.4 |
| 20260505110334 | 17 | 180 | 3.2 | 3.2 | 0.00 | 0.00 | 0.00 | 65 | 1006.1 |
| 20260505101809 | 17 | 161 | 8.0 | 9.7 | 0.00 | 0.00 | 0.00 | 65 | 1005.6 |
| 20260505101304 | 17 | 177 | 6.4 | 8.0 | 0.00 | 0.00 | 0.00 | 65 | 1005.4 |
| 20260505100800 | 17 | 359 | 3.2 | 14.5 | 0.00 | 0.00 | 0.00 | 64 | 1005.5 |
| 20260505100257 | 17 | 288 | 0.0 | 6.4 | 0.00 | 0.00 | 0.00 | 64 | 1005.5 |
| 20260505095753 | 17 | 147 | 6.4 | 12.9 | 0.00 | 0.00 | 0.00 | 63 | 1005.5 |
| 20260505095251 | 17 | 172 | 3.2 | 9.7 | 0.00 | 0.00 | 0.00 | 63 | 1005.3 |
| 20260505094746 | 17 | 120 | 6.4 | 14.5 | 0.00 | 0.00 | 0.00 | 64 | 1005.2 |
| 20260505094243 | 17 | 175 | 4.8 | 8.0 | 0.00 | 0.00 | 0.00 | 64 | 1005.2 |
| 20260505093739 | 17 | 176 | 4.8 | 11.3 | 0.00 | 0.00 | 0.00 | 63 | 1005.3 |
| 20260505093237 | 17 | 146 | 4.8 | 8.0 | 0.00 | 0.00 | 0.00 | 64 | 1005.1 |
| 20260505092733 | 17 | 138 | 6.4 | 9.7 | 0.00 | 0.00 | 0.00 | 63 | 1005.1 |
| 20260505092232 | 17 | 190 | 3.2 | 6.4 | 0.00 | 0.00 | 0.00 | 64 | 1005.1 |
| 20260505091729 | 17 | 203 | 3.2 | 4.8 | 0.00 | 0.00 | 0.00 | 64 | 1005.1 |
| 20260505091227 | 17 | 156 | 6.4 | 6.4 | 0.00 | 0.00 | 0.00 | 64 | 1005.1 |
| 20260505090724 | 17 | 233 | 1.6 | 8.0 | 0.00 | 0.00 | 0.00 | 63 | 1005.2 |
| 20260505090223 | 17 | 157 | 4.8 | 8.0 | 0.00 | 0.00 | 0.00 | 63 | 1005.1 |
| 20260505085719 | 17 | 192 | 3.2 | 11.3 | 0.00 | 0.00 | 0.00 | 64 | 1005.2 |
| 20260505085217 | 17 | 163 | 4.8 | 8.0 | 0.00 | 0.00 | 0.00 | 64 | 1005.1 |
| 20260505084715 | 18 | 223 | 6.4 | 6.4 | 0.00 | 0.00 | 0.00 | 64 | 1005.1 |
| 20260505084214 | 18 | 145 | 3.2 | 12.9 | 0.00 | 0.00 | 0.00 | 64 | 1004.8 |
| 20260505083710 | 18 | 180 | 6.4 | 14.5 | 0.00 | 0.00 | 0.00 | 64 | 1005.0 |
| 20260505083207 | 18 | 93 | 4.8 | 6.4 | 0.00 | 0.00 | 0.00 | 63 | 1004.9 |
| 20260505082703 | 17 | 210 | 3.2 | 8.0 | 0.00 | 0.00 | 0.00 | 64 | 1004.9 |
| 20260505082200 | 17 | 150 | 3.2 | 6.4 | 0.00 | 0.00 | 0.00 | 64 | 1005.0 |
| 20260505081655 | 17 | 156 | 4.8 | 4.8 | 0.00 | 0.00 | 0.00 | 64 | 1004.6 |
| 20260505081153 | 17 | 218 | 0.0 | 14.5 | 0.00 | 0.00 | 0.00 | 64 | 1004.8 |
| 20260505080650 | 17 | 257 | 3.2 | 6.4 | 0.00 | 0.00 | 0.00 | 64 | 1004.6 |
| 20260505080146 | 17 | 139 | 6.4 | 14.5 | 0.00 | 0.00 | 0.00 | 64 | 1004.8 |
| 20260505075642 | 17 | 128 | 3.2 | 4.8 | 0.00 | 0.00 | 0.00 | 65 | 1004.5 |
| 20260505075139 | 17 | 191 | 1.6 | 8.0 | 0.00 | 0.00 | 0.00 | 65 | 1004.5 |
| 20260505074636 | 17 | 118 | 3.2 | 4.8 | 0.00 | 0.00 | 0.00 | 65 | 1004.6 |
| 20260505074133 | 17 | 222 | 3.2 | 4.8 | 0.00 | 0.00 | 0.00 | 66 | 1004.5 |
| 20260505073631 | 17 | 187 | 6.4 | 8.0 | 0.00 | 0.00 | 0.00 | 66 | 1004.4 |
| 20260505073129 | 17 | 204 | 3.2 | 8.0 | 0.00 | 0.00 | 0.00 | 66 | 1004.4 |
| 20260505072624 | 17 | 179 | 1.6 | 8.0 | 0.00 | 0.00 | 0.00 | 66 | 1004.5 |
| 20260505072121 | 17 | 189 | 3.2 | 8.0 | 0.00 | 0.00 | 0.00 | 66 | 1004.5 |
| 20260505071617 | 17 | 184 | 9.7 | 14.5 | 0.00 | 0.00 | 0.00 | 65 | 1004.5 |
| 20260505071114 | 17 | 301 | 1.6 | 3.2 | 0.00 | 0.00 | 0.00 | 66 | 1004.3 |
| 20260505070611 | 17 | 223 | 1.6 | 8.0 | 0.00 | 0.00 | 0.00 | 66 | 1004.4 |
| 20260505070108 | 17 | 152 | 4.8 | 8.0 | 0.00 | 0.00 | 0.00 | 67 | 1004.3 |
| 20260505065603 | 17 | 132 | 4.8 | 14.5 | 0.00 | 0.00 | 0.00 | 66 | 1004.5 |
| 20260505065100 | 17 | 172 | 1.6 | 6.4 | 0.00 | 0.00 | 0.00 | 66 | 1004.7 |
| 20260505064557 | 17 | 171 | 4.8 | 6.4 | 0.00 | 0.00 | 0.00 | 67 | 1004.5 |
| 20260505064056 | 17 | 212 | 0.0 | 6.4 | 0.00 | 0.00 | 0.00 | 67 | 1004.6 |
| 20260505063553 | 17 | 131 | 4.8 | 6.4 | 0.00 | 0.00 | 0.00 | 66 | 1004.5 |
| 20260505063049 | 17 | 176 | 1.6 | 6.4 | 0.00 | 0.00 | 0.00 | 67 | 1004.8 |
| 20260505062545 | 17 | 115 | 3.2 | 4.8 | 0.00 | 0.00 | 0.00 | 66 | 1004.9 |
| 20260505062042 | 17 | 149 | 4.8 | 4.8 | 0.00 | 0.00 | 0.00 | 66 | 1004.9 |
| 20260505061540 | 17 | 152 | 3.2 | 8.0 | 0.00 | 0.00 | 0.00 | 65 | 1004.9 |
| 20260505061038 | 17 | 181 | 3.2 | 11.3 | 0.00 | 0.00 | 0.00 | 66 | 1005.0 |
| 20260505060535 | 17 | 168 | 0.0 | 6.4 | 0.00 | 0.00 | 0.00 | 66 | 1005.1 |
| 20260505060032 | 17 | 153 | 4.8 | 6.4 | 0.00 | 0.00 | 0.00 | 66 | 1005.1 |
| 20260505055527 | 17 | 181 | 3.2 | 4.8 | 0.00 | 0.00 | 0.00 | 67 | 1005.3 |
| 20260505055024 | 17 | 128 | 4.8 | 8.0 | 0.00 | 0.00 | 0.00 | 67 | 1005.4 |
| 20260505054521 | 17 | 172 | 4.8 | 6.4 | 0.00 | 0.00 | 0.00 | 67 | 1005.5 |
| 20260505054019 | 17 | 174 | 1.6 | 4.8 | 0.00 | 0.00 | 0.00 | 68 | 1005.4 |
| 20260505053516 | 17 | 163 | 3.2 | 3.2 | 0.00 | 0.00 | 0.00 | 68 | 1005.5 |
| 20260505053013 | 17 | 182 | 4.8 | 9.7 | 0.00 | 0.00 | 0.00 | 68 | 1005.5 |
| 20260505052510 | 17 | 156 | 3.2 | 4.8 | 0.00 | 0.00 | 0.00 | 68 | 1005.5 |
| 20260505052007 | 17 | 160 | 3.2 | 4.8 | 0.00 | 0.00 | 0.00 | 68 | 1005.7 |
| 20260505051503 | 17 | 178 | 6.4 | 6.4 | 0.00 | 0.00 | 0.00 | 68 | 1005.6 |
| 20260505051002 | 17 | 165 | 4.8 | 4.8 | 0.00 | 0.00 | 0.00 | 67 | 1005.5 |
| 20260505050500 | 17 | 179 | 3.2 | 6.4 | 0.00 | 0.00 | 0.00 | 68 | 1005.6 |
| 20260505041427 | 17 | 230 | 3.2 | 6.4 | 0.00 | 0.00 | 0.00 | 64 | 1005.8 |
| 20260505040924 | 17 | 204 | 3.2 | 9.7 | 0.00 | 0.00 | 0.00 | 64 | 1005.9 |
| 20260505040422 | 17 | 123 | 9.7 | 12.9 | 0.00 | 0.00 | 0.00 | 63 | 1005.8 |
| 20260505035918 | 17 | 165 | 6.4 | 8.0 | 0.00 | 0.00 | 0.00 | 63 | 1005.9 |